Lexington Weather

Lexington, Massachusetts, USA

56°F
10/22/2020 7:22pm 
  • Lexington Conditions: Mostly cloudy
  • Temperature: 55.8°F / 13.2°CColder 0.5°F than last hour.
  • Dew Point: 54.3°F 
  • Relative Humidity: 95%Increased 2.0% since last hour.
  • Wind: Wind from SSE SSE 1 mph, 10-min avg: 1 mph, gust: 5 mph
  • Barometer: 30.22 inRising 0.02  inHg/hr Rising Slowly
  • Visibility: 7 miles
  • Rain Today: 0.00 in
  •   

Regional Weather Roundup
for Boston / Norton, MA

        
000
ASUS41 KBOX 210404
RWRBOX

REGIONAL WEATHER ROUNDUP
NATIONAL WEATHER SERVICE BOSTON/NORTON MA
1200 AM EDT WED OCT 21 2020

NOTE:  "FAIR" INDICATES FEW OR NO CLOUDS BELOW 12,000 FEET WITH NO 
SIGNIFICANT WEATHER AND/OR OBSTRUCTIONS TO VISIBILITY.

MAZALL-210500-
EASTERN MASSACHUSETTS
  
CITY           SKY/WX    TMP DP  RH WIND       PRES   REMARKS
BOSTON         FOG       59  59 100 CALM      30.29R VSB 1/4          
BEVERLY        FOG       59  58  96 CALM      30.28S VSB 1/4          
LAWRENCE       FOG       58  58 100 NE3       30.31R VSB 1/4          
BEDFORD        CLOUDY    58  57  97 CALM      30.27S                  
BLUE HILL        N/A     60  60 100 SW5       30.28R                  
NORWOOD        FOG       61  59  93 CALM      30.28R VSB 1/4          
MARSHFIELD     FOG       59  59 100 CALM      30.28R VSB<1/4          
PLYMOUTH       FOG       58  57  97 CALM      30.28R VSB 1/2          
TAUNTON        FOG       62  61  96 CALM      30.28R VSB 1/4          
NEW BEDFORD    FOG       60  59  96 CALM      30.27S VSB 1/2          
$$

MAZALL-210500-
CAPE COD AND THE ISLANDS
  
CITY           SKY/WX    TMP DP  RH WIND       PRES   REMARKS
FALMOUTH       NOT AVBL                                               
HYANNIS        CLOUDY    61  61 100 CALM      30.27S FOG              
CHATHAM        FOG       64  63  96 CALM      30.29S VSB 1            
PROVINCETOWN   CLOUDY    61  61 100 E6        30.28S                  
NANTUCKET      FOG      N/A N/A N/A S7        30.28S VSB 1/4          
MARTHAS VNYRD  FOG       63  63 100 W3        30.28S VSB 3/4          
$$
 
MAZALL-210500-
CENTRAL AND WESTERN MASSACHUSETTS
  
CITY           SKY/WX    TMP DP  RH WIND       PRES   REMARKS
WORCESTER      PTCLDY    61  59  93 E3        30.29S FOG              
FITCHBURG      CLOUDY    59  58  96 N3        30.29S                  
ORANGE         FOG       55  54  96 CALM      30.28F VSB 3/4          
SPRINGFIELD    MOCLDY    58  58 100 CALM      30.26R FOG              
WESTFIELD      FOG       57  57 100 CALM      30.26F VSB 1/4          
NORTH ADAMS    CLOUDY    59  56  89 CALM      30.28S                  
PITTSFIELD     CLOUDY    57  55  93 CALM      30.26F                  
$$
 
RIZALL-210500-
RHODE ISLAND
  
CITY           SKY/WX    TMP DP  RH WIND       PRES   REMARKS
PROVIDENCE     FOG       60  60 100 CALM      30.28S VSB 1/4          
NEWPORT        FOG       60  60 100 CALM      30.27F VSB<1/4          
BLOCK ISLAND   FOG       59  58  96 CALM      30.28S VSB 3/4          
SMITHFIELD     FOG       60  60 100 CALM        N/A  VSB 1/4          
WESTERLY       FOG       62  61  96 CALM      30.28S VSB 3/4          
$$
 
CTZALL-210500-
CONNECTICUT
  
CITY           SKY/WX    TMP DP  RH WIND       PRES   REMARKS
BRADLEY INTL   MOCLDY    60  58  92 S6        30.27R                  
HARTFORD       FOG       58  57  97 CALM      30.27S VSB 1/4          
BRIDGEPORT     FOG       63  62  97 CALM      30.27S VSB 1/4          
DANBURY        FOG       57  57 100 CALM      30.28S VSB 3/4          
GROTON         CLOUDY    62  62 100 CALM      30.28R                  
NEW HAVEN      FOG       62  61  96 CALM      30.27S VSB 1/4          
CHESTER        FOG       59  59 100 CALM      30.29S VSB<1/4          
MERIDEN        FOG       59  58  96 CALM      30.28R VSB 1/4          
WILLIMANTIC    FOG       61  60  97 CALM      30.28S VSB 1/2          
OXFORD         CLOUDY    57  57 100 CALM      30.29R FOG              
$$

MEZ002-015-021-024-NHZ003-005-008-011-012-014-VTZ005-008-210500-
NORTHERN NEW ENGLAND
  
CITY           SKY/WX    TMP DP  RH WIND       PRES   REMARKS
PORTLAND ME    CLOUDY    56  56 100 N5        30.32R                  
BANGOR ME      LGT RAIN  52  49  89 N8        30.35S                  
CONCORD NH     CLOUDY    58  54  86 NW6       30.29S                  
MANCHESTER NH  CLOUDY    62  58  86 CALM      30.27S                  
NASHUA NH      CLOUDY    59  59 100 CALM      30.29S                  
PORTSMOUTH NH  FOG       58  57  99 CALM      30.29  VSB 1/8          
JAFFREY NH     MOCLDY    57  55  93 CALM      30.29F                  
KEENE NH       CLOUDY    60  58  92 CALM      30.29R                  
BURLINGTON VT  CLOUDY    48  42  80 N6        30.35S                  
MT. WASHINGTON DRZL/FOG  41  41 100 SW13G21     N/A  VSB 0            
$$

NYZ052-076-210500-
EASTERN NEW YORK
  
CITY           SKY/WX    TMP DP  RH WIND       PRES   REMARKS
ALBANY         DRIZZLE   48  48 100 N8        30.31F FOG              
NEW YORK CITY  FOG       63  60  90 SE6       30.26S VSB 1/2          
$$
 
ANZALL-210500-
MARINE OBSERVATIONS
  
STATION/POSITION TIME  TEMP    WIND        PRES    VSBY  WAVE
                       AIR SEA DIR/SP/G                  HT/PER
                 (UTC) (F)     (DEG/KT/KT) (MB)    (MI)  (FT/S)
BOSTON BUOY      0350   57 58     CALM     1024.7R         2/10
BUZZARDS BAY     0300           40/  1/  2 1026.1R
NANTUCKET SOUND  0350      61  230/  4/  4   N/A           1
MASS BAY-STELLWA 0304   58 58   70/  2/  4 1024.8S   1/4   3/ 8
ISLE OF SHOALS   0300   57      70/  5/  5 1025.2R
S OF BLOCK IS    0326      63                N/A           3/ 9
$$

......................KEY.........................
  SKY/WX - SKY CONDITION/PRESENT WEATHER
  TMP    - TEMPERATURE IN FAHRENHEIT
  DWPT   - DEWPOINT IN FAHRENHEIT
  RH     - RELATIVE HUMIDITY IN PERCENT
  WIND   - DIRECTION AND SPEED IN MPH
  PRES   - MEAN SEA LEVEL PRESSURE IN INCHES OF HG
  WCI    - WIND CHILL INDEX
  VSB    - VISIBILITY IN MILES
  HX     - HEAT INDEX
  TC     - TEMPERATURE IN CELSIUS
  VRB    - VARIABLE WIND DIRECTION
  N/A    - NOT AVAILABLE
  
      

Other recent Regional Weather Roundups

Thu Oct 22, 7:05pm

Thu Oct 22, 6:04pm

Thu Oct 22, 5:04pm

Thu Oct 22, 4:05pm

Thu Oct 22, 3:04pm

Thu Oct 22, 2:05pm

Thu Oct 22, 1:04pm

Thu Oct 22, 12:04pm

Thu Oct 22, 11:04am

Thu Oct 22, 10:05am

Thu Oct 22, 9:04am

Thu Oct 22, 8:05am

Thu Oct 22, 7:04am

Thu Oct 22, 6:04am

Thu Oct 22, 5:04am

Thu Oct 22, 4:04am

Thu Oct 22, 3:04am

Thu Oct 22, 2:04am

Thu Oct 22, 1:04am

Thu Oct 22, 12:04am

Wed Oct 21, 11:05pm

Wed Oct 21, 10:04pm

Wed Oct 21, 9:04pm

Wed Oct 21, 8:04pm

Wed Oct 21, 7:04pm

Wed Oct 21, 6:04pm

Wed Oct 21, 5:05pm

Wed Oct 21, 4:04pm

Wed Oct 21, 3:04pm

Wed Oct 21, 2:05pm

Wed Oct 21, 1:04pm

Wed Oct 21, 12:04pm

Wed Oct 21, 11:04am

Wed Oct 21, 10:04am

Wed Oct 21, 9:04am

Wed Oct 21, 8:04am

Wed Oct 21, 7:04am

Wed Oct 21, 6:04am

Wed Oct 21, 5:04am

Wed Oct 21, 4:04am

Wed Oct 21, 3:04am

Wed Oct 21, 2:04am

Wed Oct 21, 1:04am

Tue Oct 20, 11:05pm

Tue Oct 20, 10:04pm

Tue Oct 20, 9:04pm

Tue Oct 20, 8:05pm

Tue Oct 20, 7:04pm

Tue Oct 20, 6:04pm

Tue Oct 20, 5:05pm

Tue Oct 20, 4:04pm

Tue Oct 20, 3:05pm

Tue Oct 20, 2:07pm

Tue Oct 20, 1:04pm

Tue Oct 20, 12:04pm

Tue Oct 20, 11:04am

Tue Oct 20, 10:05am

Tue Oct 20, 9:04am

Tue Oct 20, 8:04am

Tue Oct 20, 7:04am

Tue Oct 20, 6:04am

Tue Oct 20, 5:04am

Tue Oct 20, 4:04am

Tue Oct 20, 3:04am

Tue Oct 20, 2:04am

Tue Oct 20, 1:04am

Tue Oct 20, 12:04am

Mon Oct 19, 11:04pm

Mon Oct 19, 10:04pm

Mon Oct 19, 9:04pm

Mon Oct 19, 8:04pm

Mon Oct 19, 7:04pm

Mon Oct 19, 6:04pm

Mon Oct 19, 5:04pm

Mon Oct 19, 4:04pm

Mon Oct 19, 3:04pm

Mon Oct 19, 2:04pm

Mon Oct 19, 1:05pm

Mon Oct 19, 12:04pm

Mon Oct 19, 11:04am

Mon Oct 19, 10:04am

Mon Oct 19, 9:04am

Mon Oct 19, 8:04am

Mon Oct 19, 7:04am

Mon Oct 19, 6:04am

Mon Oct 19, 5:04am

Mon Oct 19, 4:04am

Mon Oct 19, 3:04am

Mon Oct 19, 2:04am

Mon Oct 19, 1:04am

Mon Oct 19, 12:05am

Sun Oct 18, 11:04pm

Sun Oct 18, 10:04pm

Sun Oct 18, 9:04pm

Sun Oct 18, 8:04pm

Sun Oct 18, 7:05pm

Sun Oct 18, 6:04pm

Sun Oct 18, 5:05pm

Sun Oct 18, 4:05pm

Sun Oct 18, 3:04pm

Sun Oct 18, 2:05pm

Sun Oct 18, 1:04pm

Sun Oct 18, 12:04pm

Sun Oct 18, 11:04am

Sun Oct 18, 10:04am

Sun Oct 18, 9:04am

Sun Oct 18, 8:04am

Sun Oct 18, 7:04am

Sun Oct 18, 6:04am

Sun Oct 18, 5:04am

Sun Oct 18, 4:04am

Sun Oct 18, 3:04am

Sun Oct 18, 2:04am

Sun Oct 18, 1:04am

Sun Oct 18, 12:04am

Sat Oct 17, 11:05pm

Sat Oct 17, 10:04pm

Sat Oct 17, 9:04pm

Sat Oct 17, 8:04pm

Sat Oct 17, 7:04pm

Sat Oct 17, 6:04pm

Sat Oct 17, 5:05pm

Sat Oct 17, 4:04pm

Sat Oct 17, 3:04pm

Sat Oct 17, 2:05pm

Sat Oct 17, 1:05pm

Sat Oct 17, 12:04pm

Sat Oct 17, 11:05am

Sat Oct 17, 10:04am

Sat Oct 17, 9:04am

Sat Oct 17, 8:04am

Sat Oct 17, 7:04am

Sat Oct 17, 6:04am

Sat Oct 17, 5:04am

Sat Oct 17, 4:04am

Sat Oct 17, 3:04am

Sat Oct 17, 2:04am

Sat Oct 17, 1:05am

Sat Oct 17, 12:04am

Fri Oct 16, 11:05pm

Fri Oct 16, 10:04pm

Fri Oct 16, 9:05pm

Fri Oct 16, 8:04pm

Fri Oct 16, 7:05pm

Fri Oct 16, 6:04pm

Fri Oct 16, 5:04pm

Fri Oct 16, 4:05pm

Fri Oct 16, 3:04pm

Fri Oct 16, 2:04pm

Fri Oct 16, 1:04pm

Fri Oct 16, 12:04pm

Fri Oct 16, 11:05am

Fri Oct 16, 10:04am

Fri Oct 16, 9:04am

Fri Oct 16, 8:04am

Fri Oct 16, 7:04am

Fri Oct 16, 6:04am

Fri Oct 16, 5:04am

Fri Oct 16, 4:04am

Fri Oct 16, 3:04am

Fri Oct 16, 2:04am

Fri Oct 16, 1:04am

Fri Oct 16, 12:04am

Thu Oct 15, 11:04pm

Thu Oct 15, 10:04pm

Thu Oct 15, 9:05pm

Thu Oct 15, 8:04pm

Meta data:

ID: e09b7303-302d-4de0-8374-2843813727ad
Link: https://api.weather.gov/products/e09b7303-302d-4de0-8374-2843813727ad